Simultaneous Nadir Overpasses (SNOs) Predictions

Prediction of SNOs between METOP-A and TERRA Satellite Orbit:

Table of predicted SNOs for the next 14.0 days since TLE Epoch: 8/26/2017
Index Date (METOP-A) Time (METOP-A) Lat,Lon (METOP-A) SZA (METOP-A ) Date (TERRA) Time (TERRA) Lat,Lon (TERRA) SZA (TERRA ) Distance(km) Time Diff (sec)
1 08/26/2017 07:11:19 -81.35, -60.05 106.13 08/26/2017 07:12:08 -81.36, -59.86 106.08 3.27 49
2 08/26/2017 08:01:58 81.36, 107.84 73.95 08/26/2017 08:01:34 81.36, 107.90 73.95 1.17 24
3 08/29/2017 02:45:39 -81.35, 6.45 105.11 08/29/2017 02:46:24 -81.35, 6.47 105.09 0.28 45
4 08/29/2017 03:36:18 81.36, 174.32 74.97 08/29/2017 03:35:50 81.35, 174.20 74.94 2.03 28
5 08/31/2017 22:19:58 -81.35, 72.94 104.08 08/31/2017 22:20:39 -81.34, 72.75 104.08 3.28 41
6 08/31/2017 23:10:37 81.36,-119.20 76.01 08/31/2017 23:10:04 81.37,-119.14 76.00 1.45 33
7 09/03/2017 17:54:18 -81.35, 139.40 103.02 09/03/2017 17:54:54 -81.35, 139.39 103.01 0.24 36
8 09/03/2017 18:44:57 81.36, -52.75 77.06 09/03/2017 18:44:20 81.36, -52.90 77.02 2.57 37
9 09/06/2017 13:28:38 -81.35,-154.15 101.95 09/06/2017 13:29:09 -81.36,-154.01 101.92 2.50 31




NCC Satellite Simultaneous Nadir Overpasses (SNOs) Prediction Service
